period_start,C,m1,H,J0,J1,J2,J3,J4,J5,JA,JB,JC,JD,JJ,JK,JN,#
2018-08-26 00:04:03,0.01,0.45,0.00,23.48,26.91,29.47,14.02,47.22,1024.43,2029.05,3242.88,2970.05,3394.11,599.60,599.27,30.59,0000 0000 0000 0000 000000
2018-08-26 00:09:04,0.01,0.45,0.00,23.50,26.94,29.51,13.86,47.27,1024.43,2029.02,3242.23,2970.00,3394.00,599.51,599.12,30.64,0000 0000 0000 0000 000000
2018-08-26 00:14:05,0.00,0.45,0.00,23.52,26.96,29.53,14.01,47.29,1024.43,2029.00,3242.00,2969.98,3393.97,599.83,599.51,30.70,0000 0000 0000 0000 000000
2018-08-26 00:19:06,0.01,0.45,0.00,23.55,26.98,29.54,14.02,47.29,1024.43,2029.00,3241.98,2969.88,3393.61,600.11,599.53,30.75,0000 0000 0000 0000 000000
2018-08-26 00:24:07,0.03,0.45,0.00,23.57,27.01,29.56,13.96,47.25,1024.40,2029.00,3241.70,2969.32,3393.08,599.88,599.38,30.80,0000 0000 0000 0000 000000
2018-08-26 00:29:09,0.01,0.45,0.00,23.60,27.03,29.56,13.99,47.24,1024.39,2028.99,3241.04,2969.01,3393.00,599.83,599.25,30.85,0000 0000 0000 0000 000000
2018-08-26 00:34:10,0.00,0.45,0.00,23.61,27.05,29.59,14.07,47.37,1024.30,2028.97,3241.00,2969.00,3392.93,600.35,599.58,30.90,0000 0000 0000 0000 000000
2018-08-26 00:39:11,0.00,0.45,0.00,23.64,27.07,29.62,13.93,47.54,1024.16,2028.89,3240.97,2968.98,3392.43,600.09,599.21,30.95,0000 0000 0000 0000 000000
2018-08-26 00:44:12,0.01,0.45,0.00,23.67,27.10,29.61,13.96,47.48,1023.99,2028.62,3240.30,2968.34,3392.01,599.84,598.83,31.00,0000 0000 0000 0000 000000
2018-08-26 00:49:14,-0.03,0.45,0.00,23.70,27.12,29.64,13.99,47.49,1023.96,2028.32,3240.01,2968.01,3391.97,600.15,599.10,31.05,0000 0000 0000 0000 000000
2018-08-26 00:54:15,0.01,0.45,0.00,23.73,27.15,29.68,13.98,47.59,1023.94,2028.07,3239.80,2968.00,3391.34,599.83,598.70,31.10,0000 0000 0000 0000 000000
2018-08-26 00:59:16,0.01,0.45,0.00,23.76,27.17,29.69,14.03,47.52,1023.94,2028.02,3239.26,2967.91,3391.01,599.93,598.83,31.15,0000 0000 0000 0000 000000
2018-08-26 01:04:17,0.02,0.45,0.00,23.79,27.20,29.71,13.91,47.52,1023.91,2028.01,3239.01,2967.33,3391.00,599.56,598.24,31.20,0000 0000 0000 0000 000000
2018-08-26 01:09:19,0.00,0.45,0.00,23.82,27.22,29.73,13.94,47.54,1023.81,2028.00,3238.99,2967.05,3390.99,600.14,598.76,31.25,0000 0000 0000 0000 000000
2018-08-26 01:14:20,0.02,0.45,0.00,23.85,27.25,29.77,13.91,47.38,1023.74,2028.00,3238.60,2967.00,3390.49,599.50,598.05,31.30,0000 0000 0000 0000 000000
2018-08-26 01:19:21,0.01,0.46,0.00,23.90,27.27,29.79,13.87,47.44,1023.51,2027.99,3238.04,2966.97,3390.02,599.89,598.11,31.35,0000 0000 0000 0000 000000
2018-08-26 01:24:22,0.01,0.46,0.00,23.93,27.30,29.81,14.01,47.57,1023.47,2027.98,3238.00,2966.50,3389.99,599.95,598.05,31.40,0000 0000 0000 0000 000000
2018-08-26 01:29:24,-0.01,0.46,0.00,23.96,27.32,29.83,13.86,47.42,1023.47,2027.85,3237.99,2966.08,3389.82,599.89,598.06,31.45,0000 0000 0000 0000 000000
2018-08-26 01:34:25,-0.03,0.46,0.00,24.00,27.35,29.87,13.98,47.49,1023.45,2027.35,3237.53,2966.00,3389.14,600.50,598.37,31.50,0000 0000 0000 0000 000000
2018-08-26 01:39:26,-0.00,0.45,0.00,24.03,27.38,29.89,13.99,47.44,1023.45,2027.12,3237.03,2965.99,3389.00,599.97,598.00,31.55,0000 0000 0000 0000 000000
2018-08-26 01:44:28,0.00,0.45,0.00,24.07,27.41,29.91,13.96,47.38,1023.45,2027.04,3237.00,2965.80,3388.98,600.02,597.77,31.60,0000 0000 0000 0000 000000
2018-08-26 01:49:29,0.03,0.46,0.00,24.11,27.44,29.94,13.90,47.54,1023.45,2027.02,3236.84,2965.16,3388.46,599.95,597.73,31.65,0000 0000 0000 0000 000000
2018-08-26 01:54:30,0.01,0.46,0.00,24.15,27.47,29.96,13.99,47.42,1023.45,2027.00,3236.17,2965.00,3388.01,599.88,597.59,31.70,0000 0000 0000 0000 000000
2018-08-26 01:59:31,0.00,0.46,0.00,24.19,27.50,29.99,14.00,47.52,1023.45,2026.99,3236.00,2964.95,3387.98,600.26,597.98,31.75,0000 0000 0000 0000 000000
2018-08-26 02:04:32,0.02,0.46,0.00,24.22,27.53,30.02,14.02,47.51,1023.45,2026.98,3235.93,2964.69,3387.66,600.15,597.67,31.80,0000 0000 0000 0000 000000
2018-08-26 02:09:34,0.02,0.46,0.00,24.26,27.57,30.06,13.98,47.58,1023.45,2026.89,3235.23,2964.06,3387.03,600.18,597.68,31.85,0000 0000 0000 0000 000000
2018-08-26 02:14:35,-0.05,0.46,0.00,24.30,27.60,30.08,13.93,47.48,1023.45,2026.52,3235.00,2963.99,3386.94,599.99,597.33,31.90,0000 0000 0000 0000 000000
2018-08-26 02:19:36,-0.01,0.46,0.00,24.34,27.63,30.12,13.90,47.45,1023.45,2026.14,3234.85,2963.87,3386.34,599.76,597.22,31.95,0000 0000 0000 0000 000000
2018-08-26 02:24:37,0.02,0.46,0.00,24.38,27.66,30.16,13.97,47.39,1023.45,2026.03,3234.32,2963.31,3386.02,600.00,597.04,32.00,0000 0000 0000 0000 000000
2018-08-26 02:29:38,0.00,0.46,0.00,24.43,27.70,30.18,13.93,47.52,1023.45,2026.00,3234.01,2963.00,3385.98,600.20,597.41,32.05,0000 0000 0000 0000 000000
2018-08-26 02:34:40,0.01,0.46,0.00,24.46,27.73,30.22,13.92,47.56,1023.31,2026.00,3233.88,2962.99,3385.52,599.68,596.65,32.10,0000 0000 0000 0000 000000
2018-08-26 02:39:41,0.03,0.46,0.00,24.51,27.76,30.24,13.98,47.48,1023.23,2026.00,3233.13,2962.62,3385.05,600.30,597.19,32.15,0000 0000 0000 0000 000000
2018-08-26 02:44:42,0.01,0.46,0.00,24.54,27.80,30.28,13.86,47.50,1023.21,2025.99,3232.97,2962.04,3384.96,600.20,596.96,32.20,0000 0000 0000 0000 000000
2018-08-26 02:49:43,0.02,0.46,0.00,24.58,27.83,30.32,13.92,47.48,1023.05,2025.98,3232.30,2962.00,3384.24,600.11,596.71,32.25,0000 0000 0000 0000 000000
2018-08-26 02:54:45,-0.01,0.46,0.00,24.63,27.86,30.36,13.86,47.39,1023.00,2025.81,3232.01,2961.96,3384.01,599.88,596.42,32.30,0000 0000 0000 0000 000000
2018-08-26 02:59:46,-0.01,0.46,0.00,24.68,27.90,30.40,13.84,47.41,1022.97,2025.34,3231.96,2961.33,3383.96,599.55,595.95,32.35,0000 0000 0000 0000 000000
2018-08-26 03:04:48,-0.00,0.46,0.00,24.71,27.93,30.43,13.93,47.33,1022.96,2025.06,3231.52,2961.01,3383.32,600.20,596.39,32.40,0000 0000 0000 0000 000000
2018-08-26 03:09:49,0.00,0.46,0.00,24.75,27.96,30.46,13.93,47.45,1022.96,2025.01,3231.02,2960.98,3383.01,600.16,596.41,32.45,0000 0000 0000 0000 000000
2018-08-26 03:14:50,0.05,0.46,0.00,24.80,28.00,30.49,13.88,47.41,1022.96,2025.00,3230.50,2960.33,3382.48,599.43,595.73,32.50,0000 0000 0000 0000 000000
2018-08-26 03:19:51,0.01,0.46,0.00,24.84,28.04,30.53,13.91,47.43,1022.95,2024.99,3230.01,2960.01,3382.01,600.06,595.97,32.55,0000 0000 0000 0000 000000
2018-08-26 03:24:53,0.00,0.46,0.00,24.87,28.07,30.57,13.88,47.20,1022.91,2024.95,3229.97,2959.99,3381.88,600.16,596.04,32.61,0000 0000 0000 0000 000000
2018-08-26 03:29:54,0.01,0.46,0.00,24.91,28.11,30.61,13.87,47.27,1022.91,2024.64,3229.28,2959.41,3381.11,599.81,595.68,32.66,0000 0000 0000 0000 000000
2018-08-26 03:34:55,-0.04,0.46,0.00,24.95,28.15,30.66,13.92,47.42,1022.86,2024.14,3228.99,2959.02,3380.99,600.08,595.91,32.71,0000 0000 0000 0000 000000
2018-08-26 03:39:57,0.01,0.46,0.00,25.00,28.18,30.68,13.91,47.32,1022.80,2024.01,3228.67,2958.99,3380.46,600.13,595.68,32.76,0000 0000 0000 0000 000000
2018-08-26 03:44:58,0.03,0.46,0.00,25.04,28.22,30.73,13.85,47.33,1022.87,2024.00,3228.05,2958.38,3380.01,599.93,595.56,32.81,0000 0000 0000 0000 000000
2018-08-26 03:49:59,0.00,0.47,0.00,25.08,28.26,30.76,13.91,47.35,1022.83,2024.00,3227.98,2958.01,3379.87,600.35,595.85,32.86,0000 0000 0000 0000 000000
2018-08-26 03:55:00,0.02,0.47,0.00,25.12,28.29,30.78,13.87,47.27,1022.85,2023.98,3227.49,2957.98,3379.16,600.08,595.59,32.91,0000 0000 0000 0000 000000
2018-08-26 04:00:02,0.01,0.47,0.00,25.16,28.33,30.83,13.86,47.21,1022.78,2023.89,3227.01,2957.59,3378.99,599.86,595.26,32.96,0000 0000 0000 0000 000000
2018-08-26 04:05:03,-0.02,0.47,0.00,25.19,28.37,30.88,13.88,47.19,1022.83,2023.58,3226.91,2957.05,3378.63,600.05,595.33,33.01,0000 0000 0000 0000 000000
2018-08-26 04:10:04,-0.00,0.47,0.00,25.22,28.41,30.91,13.89,47.13,1022.81,2023.15,3226.32,2957.00,3378.03,600.04,595.17,33.06,0000 0000 0000 0000 000000
2018-08-26 04:15:05,-0.00,0.47,0.00,25.26,28.44,30.94,13.84,47.11,1022.87,2023.03,3226.00,2956.80,3377.97,599.96,595.15,33.11,0000 0000 0000 0000 000000
2018-08-26 04:20:06,0.04,0.47,0.00,25.30,28.48,30.99,13.99,47.31,1022.87,2023.00,3225.65,2956.10,3377.23,600.16,595.25,33.16,0000 0000 0000 0000 000000
2018-08-26 04:25:08,0.00,0.47,0.00,25.33,28.52,31.02,13.87,47.21,1022.80,2022.99,3225.04,2955.99,3377.00,599.85,594.83,33.21,0000 0000 0000 0000 000000
2018-08-26 04:30:09,-0.01,0.47,0.00,25.36,28.56,31.06,13.89,47.15,1022.67,2022.80,3224.99,2955.84,3376.66,599.99,594.83,33.26,0000 0000 0000 0000 000000
2018-08-26 04:35:10,-0.01,0.47,0.00,25.40,28.59,31.09,13.82,47.13,1022.55,2022.29,3224.55,2955.16,3376.03,600.05,594.77,33.31,0000 0000 0000 0000 000000
2018-08-26 04:40:11,-0.01,0.47,0.00,25.43,28.63,31.14,13.79,47.13,1022.52,2022.05,3224.05,2955.00,3375.98,599.63,594.31,33.36,0000 0000 0000 0000 000000
2018-08-26 04:45:13,0.01,0.47,0.00,25.47,28.66,31.16,13.86,47.18,1022.56,2022.00,3223.99,2954.89,3375.35,599.79,594.40,33.41,0000 0000 0000 0000 000000
2018-08-26 04:50:14,0.03,0.47,0.00,25.50,28.70,31.21,13.82,47.04,1022.49,2022.00,3223.41,2954.20,3375.01,599.67,594.18,33.46,0000 0000 0000 0000 000000
2018-08-26 04:55:15,0.00,0.47,0.00,25.54,28.74,31.24,13.82,47.07,1022.49,2021.97,3223.00,2954.00,3374.75,599.97,594.42,33.51,0000 0000 0000 0000 000000
2018-08-26 05:00:16,-0.02,0.47,0.00,25.56,28.78,31.29,13.96,47.25,1022.48,2021.71,3222.86,2953.91,3374.04,600.12,594.40,33.57,0000 0000 0000 0000 000000
2018-08-26 05:05:18,0.00,0.47,0.00,25.60,28.81,31.32,13.87,47.30,1022.49,2021.37,3222.14,2953.31,3373.99,600.23,594.38,33.62,0000 0000 0000 0000 000000
2018-08-26 05:10:19,-0.00,0.47,0.00,25.64,28.85,31.35,13.77,47.22,1022.49,2021.10,3222.00,2953.01,3373.60,599.82,593.97,33.67,0000 0000 0000 0000 000000
2018-08-26 05:15:20,0.00,0.47,0.00,25.68,28.89,31.39,13.91,47.32,1022.49,2021.01,3221.83,2952.99,3373.03,600.03,594.12,33.72,0000 0000 0000 0000 000000
2018-08-26 05:20:22,0.03,0.47,0.00,25.71,28.92,31.42,13.88,47.48,1022.49,2021.00,3221.11,2952.58,3372.94,600.54,594.54,33.77,0000 0000 0000 0000 000000
2018-08-26 05:25:23,0.02,0.47,0.00,25.74,28.96,31.46,13.81,47.37,1022.48,2020.99,3220.99,2952.03,3372.18,600.18,594.11,33.82,0000 0000 0000 0000 000000
2018-08-26 05:30:25,-0.01,0.47,0.00,25.79,29.00,31.50,13.85,47.27,1022.48,2020.84,3220.57,2951.99,3372.00,600.14,594.05,33.87,0000 0000 0000 0000 000000
2018-08-26 05:35:26,-0.03,0.47,0.00,25.82,29.03,31.55,13.82,47.25,1022.47,2020.22,3220.02,2951.69,3371.67,599.84,593.72,33.92,0000 0000 0000 0000 000000
2018-08-26 05:40:27,0.01,0.47,0.00,25.85,29.07,31.58,13.92,47.22,1022.47,2020.03,3219.94,2951.05,3371.04,600.73,594.43,33.97,0000 0000 0000 0000 000000
2018-08-26 05:45:29,0.01,0.47,0.00,25.89,29.11,31.61,13.85,47.21,1022.48,2020.00,3219.40,2951.00,3370.92,600.06,593.79,34.02,0000 0000 0000 0000 000000
2018-08-26 05:50:30,0.03,0.47,0.00,25.93,29.15,31.64,13.77,47.33,1022.48,2020.00,3219.00,2950.61,3370.20,599.69,593.35,34.07,0000 0000 0000 0000 000000
2018-08-26 05:55:31,0.01,0.47,0.00,25.96,29.18,31.67,13.79,47.23,1022.48,2019.96,3218.91,2950.04,3369.98,599.74,593.34,34.12,0000 0000 0000 0000 000000
2018-08-26 06:00:33,-0.03,0.47,0.00,26.00,29.22,31.72,13.83,47.22,1022.47,2019.50,3218.22,2949.99,3369.51,600.07,593.51,34.17,0000 0000 0000 0000 000000
2018-08-26 06:05:34,-0.01,0.47,0.00,26.03,29.26,31.76,13.73,47.24,1022.47,2019.06,3217.96,2949.62,3369.02,599.57,593.06,34.22,0000 0000 0000 0000 000000
2018-08-26 06:10:35,0.03,0.47,0.00,26.07,29.29,31.79,13.77,47.13,1022.46,2019.01,3217.13,2949.01,3368.41,599.63,592.84,34.27,0000 0000 0000 0000 000000
2018-08-26 06:15:36,0.07,0.48,0.00,26.10,29.33,31.83,13.80,47.09,1022.46,2019.00,3215.77,2948.08,3367.31,599.94,593.32,34.32,0000 0000 0000 0000 000000
2018-08-26 06:20:38,0.10,0.48,0.00,26.13,29.37,31.86,13.87,47.09,1022.47,2018.99,3213.64,2946.71,3365.77,600.14,593.31,34.37,0000 0000 0000 0000 000000
2018-08-26 06:25:39,0.07,0.49,0.00,26.17,29.41,31.90,13.79,47.18,1022.47,2018.89,3211.60,2945.40,3364.31,599.98,593.10,34.42,0000 0000 0000 0000 000000
2018-08-26 06:30:40,0.00,0.49,0.00,26.21,29.45,31.94,13.76,47.38,1022.46,2018.31,3210.08,2944.41,3363.07,599.75,592.80,34.48,0000 0000 0000 0000 000000
2018-08-26 06:35:41,0.06,0.49,0.00,26.24,29.48,31.96,13.88,47.12,1022.42,2018.04,3208.24,2943.31,3361.77,599.79,592.79,34.53,0000 0000 0000 0000 000000
2018-08-26 06:40:43,0.05,0.49,0.00,26.28,29.52,32.00,13.80,47.07,1022.39,2018.00,3206.90,2942.47,3360.86,599.99,592.85,34.58,0000 0000 0000 0000 000000
2018-08-26 06:45:44,0.03,0.49,0.00,26.32,29.56,32.03,13.81,47.05,1022.41,2018.00,3205.83,2941.87,3360.00,600.03,592.81,34.63,0000 0000 0000 0000 000000
2018-08-26 06:50:45,0.04,0.50,0.00,26.36,29.60,32.06,13.90,47.22,1022.40,2017.99,3204.94,2941.07,3359.16,600.43,593.11,34.68,0000 0000 0000 0000 000000
2018-08-26 06:55:47,0.05,0.50,0.00,26.40,29.64,32.10,13.85,47.02,1022.32,2017.82,3203.64,2940.37,3358.31,599.96,592.55,34.73,0000 0000 0000 0000 000000
2018-08-26 07:00:48,-0.00,0.50,0.00,26.44,29.67,32.15,13.76,46.97,1022.22,2017.32,3202.45,2939.67,3357.34,599.81,592.21,34.78,0000 0000 0000 0000 000000
2018-08-26 07:05:50,0.02,0.50,0.00,26.48,29.71,32.18,13.79,46.93,1022.18,2017.02,3201.59,2938.99,3356.73,599.94,592.27,34.83,0000 0000 0000 0000 000000
2018-08-26 07:10:51,0.07,0.50,0.00,26.52,29.75,32.22,13.79,46.97,1022.10,2017.00,3200.29,2938.08,3355.67,600.25,592.41,34.88,0000 0000 0000 0000 000000
2018-08-26 07:15:52,0.09,0.51,0.00,26.56,29.78,32.25,13.71,47.10,1022.01,2017.00,3198.23,2936.66,3354.11,599.99,591.91,34.93,0000 0000 0000 0000 000000
2018-08-26 07:20:54,0.08,0.51,0.00,26.61,29.82,32.28,13.87,47.13,1022.01,2016.97,3196.43,2935.55,3352.67,600.08,592.12,34.98,0000 0000 0000 0000 000000
2018-08-26 07:25:55,0.07,0.52,0.00,26.66,29.86,32.32,13.84,47.16,1021.99,2016.79,3194.36,2934.10,3351.05,600.16,592.06,35.03,0000 0000 0000 0000 000000
2018-08-26 07:30:56,0.03,0.52,0.00,26.71,29.91,32.38,13.75,47.10,1022.00,2016.20,3192.39,2932.70,3349.43,600.02,591.80,35.08,0000 0000 0000 0000 000000
2018-08-26 07:35:57,0.08,0.52,0.00,26.76,29.94,32.39,13.75,47.09,1021.99,2016.02,3190.58,2931.42,3348.01,599.96,591.55,35.13,0000 0000 0000 0000 000000
2018-08-26 07:40:58,0.06,0.53,0.00,26.81,29.99,32.43,13.83,47.20,1021.99,2016.00,3189.14,2930.30,3346.76,600.21,591.81,35.18,0000 0000 0000 0000 000000
2018-08-26 07:46:00,0.05,0.53,0.00,26.86,30.03,32.48,13.78,47.19,1021.99,2015.99,3188.04,2929.45,3345.81,599.83,591.30,35.23,0000 0000 0000 0000 000000
2018-08-26 07:51:01,0.08,0.53,0.00,26.92,30.07,32.51,13.81,46.96,1022.00,2015.96,3186.66,2928.56,3344.69,600.08,591.36,35.28,0000 0000 0000 0000 000000
2018-08-26 07:56:03,0.04,0.53,0.00,26.99,30.11,32.56,13.79,46.98,1021.99,2015.85,3185.17,2927.65,3343.64,600.04,591.35,35.33,0000 0000 0000 0000 000000
2018-08-26 08:01:04,-0.03,0.53,0.00,27.05,30.16,32.59,13.75,46.92,1022.00,2015.28,3184.14,2926.99,3342.93,599.96,591.00,35.39,0000 0000 0000 0000 000000
2018-08-26 08:06:05,0.04,0.54,0.00,27.11,30.20,32.64,13.76,46.96,1022.00,2015.03,3183.45,2926.18,3342.10,599.99,591.03,35.44,0000 0000 0000 0000 000000
2018-08-26 08:11:06,0.02,0.54,0.00,27.16,30.24,32.68,13.78,46.87,1022.00,2015.00,3182.69,2925.85,3341.46,599.93,590.91,35.49,0000 0000 0000 0000 000000
2018-08-26 08:16:08,0.02,0.54,0.00,27.22,30.29,32.73,13.75,46.80,1021.99,2014.96,3181.95,2925.07,3340.90,599.92,590.65,35.54,0000 0000 0000 0000 000000
2018-08-26 08:21:09,0.01,0.54,0.00,27.29,30.33,32.78,13.75,46.84,1022.00,2014.70,3181.10,2924.66,3340.09,600.26,590.89,35.59,0000 0000 0000 0000 000000
2018-08-26 08:26:10,-0.01,0.54,0.00,27.34,30.38,32.82,13.74,46.88,1022.00,2014.11,3180.47,2924.01,3339.50,600.16,590.72,35.64,0000 0000 0000 0000 000000
2018-08-26 08:31:12,0.03,0.54,0.00,27.38,30.43,32.88,13.72,46.85,1022.00,2014.00,3179.87,2923.44,3338.87,600.12,590.64,35.69,0000 0000 0000 0000 000000
2018-08-26 08:36:13,0.03,0.54,0.00,27.42,30.48,32.92,13.83,46.88,1021.99,2014.00,3179.07,2923.00,3338.07,600.46,590.82,35.74,0000 0000 0000 0000 000000
2018-08-26 08:41:14,0.03,0.54,0.00,27.47,30.52,32.98,13.73,47.02,1021.99,2013.90,3178.49,2922.31,3337.48,600.39,590.70,35.79,0000 0000 0000 0000 000000
2018-08-26 08:46:16,-0.04,0.54,0.00,27.51,30.57,33.04,13.79,47.26,1021.99,2013.35,3177.95,2921.96,3336.97,599.94,590.09,35.84,0000 0000 0000 0000 000000
2018-08-26 08:51:17,0.03,0.54,0.00,27.54,30.62,33.07,13.77,47.19,1021.99,2013.03,3177.17,2921.22,3336.17,600.19,590.24,35.89,0000 0000 0000 0000 000000
2018-08-26 08:56:18,0.03,0.54,0.00,27.58,30.67,33.13,13.75,47.10,1022.00,2013.00,3176.52,2920.76,3335.44,600.25,590.32,35.94,0000 0000 0000 0000 000000
2018-08-26 09:01:20,0.02,0.55,0.00,27.63,30.71,33.16,13.77,47.09,1022.00,2012.93,3175.90,2920.03,3334.78,600.12,590.13,35.99,0000 0000 0000 0000 000000
2018-08-26 09:06:21,0.00,0.55,0.00,27.68,30.76,33.22,13.72,46.93,1021.99,2012.70,3175.14,2919.72,3334.05,599.95,589.81,36.04,0000 0000 0000 0000 000000
2018-08-26 09:11:22,-0.02,0.55,0.00,27.72,30.81,33.26,13.81,46.80,1021.99,2012.09,3174.90,2919.05,3333.64,600.25,590.04,36.09,0000 0000 0000 0000 000000
2018-08-26 09:16:23,0.04,0.55,0.00,27.77,30.86,33.31,13.72,46.87,1022.00,2012.00,3173.92,2918.66,3332.93,600.08,589.76,36.14,0000 0000 0000 0000 000000
2018-08-26 09:21:25,0.12,0.55,0.00,27.81,30.90,33.33,13.67,46.88,1022.00,2012.00,3171.52,2917.09,3331.32,599.68,589.31,36.19,0000 0000 0000 0000 000000
2018-08-26 09:26:26,0.13,0.56,0.00,27.86,30.95,33.39,13.70,46.87,1022.00,2011.99,3168.79,2915.46,3329.43,600.26,589.70,36.24,0000 0000 0000 0000 000000
2018-08-26 09:31:27,0.16,0.57,0.00,27.91,31.00,33.43,13.73,46.88,1022.00,2011.93,3165.24,2913.35,3327.13,600.02,589.44,36.30,0000 0000 0000 0000 000000
2018-08-26 09:36:29,0.18,0.57,0.00,27.97,31.05,33.50,13.73,46.92,1022.00,2011.45,3159.82,2910.27,3323.76,600.03,589.34,36.35,0000 0000 0000 0000 000000
2018-08-26 09:41:30,0.53,0.59,0.00,28.01,31.09,33.53,13.71,47.00,1022.00,2011.05,3148.26,2904.01,3316.73,599.93,589.10,36.40,0000 0000 0000 0000 000000
2018-08-26 09:46:31,0.52,0.62,0.00,28.06,31.14,33.58,13.64,47.04,1022.00,2011.00,3135.26,2896.96,3308.73,599.78,588.94,36.45,0000 0000 0000 0000 000000
2018-08-26 09:51:33,0.34,0.64,0.00,28.05,31.18,33.61,13.67,46.98,1022.01,2010.98,3126.28,2891.99,3303.04,599.62,588.78,36.50,0000 0000 0000 0000 000000
2018-08-26 09:56:34,0.22,0.66,0.00,27.99,31.21,33.65,13.71,47.00,1022.01,2010.91,3120.35,2888.67,3299.34,599.91,589.17,36.55,0000 0000 0000 0000 000000
2018-08-26 10:01:35,0.19,0.67,0.00,27.90,31.24,33.73,13.73,46.90,1022.00,2010.42,3114.65,2885.57,3295.75,600.34,589.85,36.60,0000 0000 0000 0000 000000
2018-08-26 10:06:36,0.24,0.68,0.00,27.79,31.26,33.78,13.77,46.92,1022.00,2010.06,3108.58,2882.19,3291.90,600.09,589.72,36.65,0000 0000 0000 0000 000000
2018-08-26 10:11:38,0.21,0.69,0.00,27.73,31.27,33.82,13.80,46.75,1022.00,2010.04,3103.02,2879.30,3288.50,600.14,589.83,36.70,0000 0000 0000 0000 000000
2018-08-26 10:16:39,0.15,0.70,0.00,27.68,31.29,33.81,13.81,46.67,1022.01,2010.01,3099.31,2877.27,3286.11,600.05,589.94,36.75,0000 0000 0000 0000 000000
2018-08-26 10:21:40,0.13,0.71,0.00,27.65,31.30,33.81,13.80,46.78,1022.01,2010.02,3096.17,2875.56,3284.05,600.03,589.95,36.80,0000 0000 0000 0000 000000
2018-08-26 10:26:41,0.11,0.71,0.00,27.61,31.30,33.77,13.74,46.77,1022.01,2010.00,3093.24,2873.96,3282.30,600.08,590.03,36.85,0000 0000 0000 0000 000000
2018-08-26 10:31:43,0.11,0.72,0.00,27.60,31.28,33.73,13.82,46.78,1021.99,2010.00,3090.50,2872.54,3280.61,599.90,590.04,36.90,0000 0000 0000 0000 000000
2018-08-26 10:36:44,0.11,0.72,0.00,27.60,31.27,33.69,13.77,46.73,1022.00,2010.00,3087.86,2871.07,3278.93,599.96,589.85,36.95,0000 0000 0000 0000 000000
2018-08-26 10:41:46,0.11,0.73,0.00,27.60,31.27,33.65,13.77,46.83,1021.99,2010.00,3085.06,2869.55,3277.24,599.47,589.50,37.00,0000 0000 0000 0000 000000
2018-08-26 10:46:47,0.11,0.74,0.00,27.60,31.25,33.61,13.72,46.95,1022.00,2010.00,3082.33,2868.08,3275.58,599.87,589.87,37.05,0000 0000 0000 0000 000000
2018-08-26 10:51:48,0.12,0.74,0.00,27.62,31.25,33.58,13.78,46.92,1022.00,2010.00,3079.61,2866.59,3273.83,600.10,590.13,37.10,0000 0000 0000 0000 000000
2018-08-26 10:56:49,0.13,0.75,0.00,27.65,31.23,33.57,13.74,46.85,1022.00,2010.00,3076.65,2864.85,3271.91,599.99,589.85,37.16,0000 0000 0000 0000 000000
2018-08-26 11:01:51,0.13,0.75,0.00,27.70,31.22,33.55,13.81,46.89,1022.00,2010.01,3073.62,2863.11,3269.84,599.89,589.77,37.21,0000 0000 0000 0000 000000
2018-08-26 11:06:52,0.12,0.76,0.00,27.80,31.21,33.55,13.75,46.87,1022.00,2010.00,3070.80,2861.40,3267.92,599.87,589.52,37.26,0000 0000 0000 0000 000000
2018-08-26 11:11:53,0.14,0.77,0.00,27.88,31.20,33.54,13.78,46.82,1021.99,2010.00,3067.83,2859.60,3265.85,599.98,589.51,37.31,0000 0000 0000 0000 000000
2018-08-26 11:16:54,0.13,0.77,0.00,27.92,31.19,33.56,13.71,46.72,1021.99,2010.00,3065.03,2857.83,3263.86,600.10,589.57,37.36,0000 0000 0000 0000 000000
2018-08-26 11:21:55,0.09,0.78,0.00,27.87,31.17,33.58,13.81,46.78,1021.99,2010.00,3062.96,2856.53,3262.38,600.47,590.01,37.41,0000 0000 0000 0000 000000
2018-08-26 11:26:57,0.09,0.78,0.00,27.79,31.17,33.61,13.70,46.67,1021.99,2010.00,3060.98,2855.25,3260.88,599.81,589.52,37.46,0000 0000 0000 0000 000000
2018-08-26 11:31:58,0.10,0.79,0.00,27.70,31.15,33.62,13.74,46.68,1021.99,2010.00,3058.68,2853.76,3259.38,599.79,589.65,37.51,0000 0000 0000 0000 000000
2018-08-26 11:36:59,0.15,0.80,0.00,27.63,31.14,33.63,13.82,46.80,1021.99,2010.00,3055.80,2851.98,3257.24,600.29,590.15,37.56,0000 0000 0000 0000 000000
2018-08-26 11:42:00,0.16,0.81,0.00,27.56,31.12,33.64,13.74,46.67,1021.99,2010.00,3052.17,2849.65,3254.64,599.91,590.05,37.61,0000 0000 0000 0000 000000
2018-08-26 11:47:01,0.20,0.82,0.00,27.51,31.10,33.64,13.79,46.63,1021.99,2010.00,3047.99,2847.04,3251.72,599.94,590.09,37.66,0000 0000 0000 0000 000000
2018-08-26 11:52:02,0.21,0.83,0.00,27.47,31.09,33.67,13.77,46.64,1021.99,2010.00,3043.49,2844.20,3248.55,599.88,590.26,37.71,0000 0000 0000 0000 000000
2018-08-26 11:57:04,0.24,0.84,0.00,27.44,31.06,33.69,13.77,46.79,1021.99,2010.01,3038.47,2841.01,3245.03,599.83,590.17,37.76,0000 0000 0000 0000 000000
2018-08-26 12:02:05,0.24,0.85,0.00,27.41,31.05,33.74,13.77,46.81,1021.99,2010.03,3033.29,2837.76,3241.36,599.97,590.46,37.81,0000 0000 0000 0000 000000
2018-08-26 12:07:07,0.24,0.86,0.00,27.39,31.02,33.73,13.72,46.77,1021.99,2010.02,3028.24,2834.49,3237.70,599.85,590.30,37.86,0000 0000 0000 0000 000000
2018-08-26 12:12:08,0.23,0.87,0.00,27.36,31.00,33.73,13.84,46.73,1021.99,2010.06,3023.32,2831.35,3234.16,600.12,590.58,37.91,0000 0000 0000 0000 000000
2018-08-26 12:17:09,0.23,0.89,0.00,27.35,30.99,33.70,13.69,46.58,1021.99,2010.25,3018.83,2828.46,3230.93,599.84,590.31,37.96,0000 0000 0000 0000 000000
2018-08-26 12:22:10,0.22,0.90,0.00,27.32,30.96,33.67,13.84,46.63,1021.99,2010.49,3014.84,2825.91,3228.01,600.04,590.67,38.01,0000 0000 0000 0000 000000
2018-08-26 12:27:12,0.19,0.91,0.00,27.30,30.95,33.63,13.81,46.77,1021.99,2010.77,3010.87,2823.35,3225.18,600.46,591.01,38.06,0000 0000 0000 0000 000000
2018-08-26 12:32:13,0.19,0.92,0.00,27.29,30.92,33.64,13.82,46.76,1021.99,2010.85,3007.31,2820.98,3222.47,599.86,590.48,38.12,0000 0000 0000 0000 000000
2018-08-26 12:37:14,0.17,0.93,0.00,27.27,30.91,33.63,13.71,46.73,1021.99,2010.93,3003.91,2818.80,3219.99,599.89,590.57,38.17,0000 0000 0000 0000 000000
2018-08-26 12:42:16,0.16,0.94,0.00,27.25,30.89,33.60,13.84,46.87,1021.99,2010.97,3000.50,2816.66,3217.59,600.17,590.83,38.22,0000 0000 0000 0000 000000
2018-08-26 12:47:17,0.14,0.94,0.00,27.22,30.87,33.56,13.70,46.65,1021.99,2010.98,2997.40,2814.75,3215.34,599.65,590.43,38.27,0000 0000 0000 0000 000000
2018-08-26 12:52:18,0.11,0.95,0.00,27.21,30.85,33.50,13.78,46.81,1021.99,2010.98,2994.79,2813.10,3213.50,599.85,590.57,38.32,0000 0000 0000 0000 000000
2018-08-26 12:57:19,0.07,0.96,0.00,27.19,30.83,33.46,13.74,46.75,1021.99,2010.98,2993.04,2811.90,3212.12,599.88,590.67,38.37,0000 0000 0000 0000 000000